Home   Weather   Santa Ana   Past weeks

Flag for El Salvador Past Weather in Santa Ana, El Salvador — Yesterday and Last 2 Weeks

86 °F


Feels Like: 91 °F
Forecast: N/A
Wind: 10 mph from North

Location: San Salvador / Ilopango

Current Time: Oct 24, 2016 at 3:56:39 PM

Latest Report: Oct 24, 2016 at 2:50 PM

Visibility: 10 mi

Pressure: 30.01 "Hg (27.89 "Hg at 650m altitude)

Humidity: 59%

Dew Point: 70 °F

Location of Santa AnaLocation

Past Weather in Santa Ana — Graph


Santa Ana Temperature Yesterday

Maximum temperature yesterday: 86 °F (at 2:50 PM)
Minimum temperature yesterday: 68 °F (at 5:50 AM)
Average temperature yesterday: 78 °F

High & Low Weather Summary for the Past Weeks

High88 °F (Oct 11, 2:50 PM)100% (Oct 9, 9:50 PM)30.11 "Hg (Oct 9, 9:50 PM)
Low68 °F (Oct 13, 5:50 AM)51% (Oct 13, 12:50 PM)29.86 "Hg (Oct 17, 5:50 PM)
Average77 °F80%29.96 "Hg
* Reported Oct 9 2:50 PM — Oct 24 2:50 PM, Santa Ana, Weather by CustomWeather, © 2016

Note: Actual official high and low records may vary slightly from our data, if they occured in-between our weather recording intervals... More about our weather records


Santa Ana Weather History for the Previous 24 Hours

Scroll right to see more
Time TempWeatherWind HumidityBarometerVisibility
2:50 PM
Mon, Oct 24
86 °FSunny.10 mph59%30.01 "Hg10 mi
1:50 PM84 °FSunny.7 mph62%30.01 "Hg10 mi
12:50 PM84 °FSunny.9 mph66%30.01 "Hg10 mi
11:50 AM82 °FSunny.12 mph66%30.04 "Hg10 mi
10:50 AM82 °FSunny.7 mph66%30.07 "Hg10 mi
9:50 AM81 °FSunny.6 mph70%30.07 "Hg10 mi
8:50 AM79 °FSunny.10 mph79%30.07 "Hg10 mi
7:50 AM73 °FSunny.8 mph78%30.04 "Hg10 mi
6:50 AM70 °FSunny.22 mph78%30.04 "Hg10 mi
5:50 AM68 °FSunny.20 mph88%30.01 "Hg10 mi
11:50 PM
Sun, Oct 23
70 °FClear.15 mph83%30.07 "Hg10 mi
10:50 PM72 °FClear.15 mph78%30.07 "Hg10 mi
9:50 PM72 °FClear.16 mph78%30.07 "Hg10 mi
8:50 PM73 °FClear.14 mph78%30.04 "Hg10 mi
7:50 PM75 °FClear.21 mph69%30.01 "Hg10 mi
6:50 PM77 °FClear.23 mph65%30.01 "Hg10 mi
5:50 PM81 °FPassing clouds.7 mph70%29.98 "HgN/A
4:50 PM82 °FPassing clouds.7 mph58%29.98 "HgN/A
3:50 PM86 °FPassing clouds.12 mph52%29.95 "HgN/A
Weather by CustomWeather, © 2016

See weather overviewHow to use our weather pages